Location: Carrières
(48.9495°N, 2.0407°E)
Time: 03:29:00
(UTC+00:00)

Transit 2A Rocket - Pass Details

Date: 28 April 2024
Orbit: 585 x 908 km, 66.7° (Epoch: 19 May)

Event Time Altitude Azimuth Distance (km) Brightness Sun altitude
Rises 16:03:00 0° 325° (NW) 3,242 8.5 28.2°
Reaches altitude 10° 16:05:49 10° 340° (NNW) 2,370 7.8 27.8°
Maximum altitude 16:10:13 24° 33° (NNE) 1,672 6.6 27.0°
Drops below altitude 10° 16:14:52 10° 86° (E) 2,517 7.2 26.3°
Sets 16:17:56 0° 100° (E) 3,489 7.9 25.8°
